Flag for U.S.A. Weather past 2 weeks in Rochester, New York, U.S.A.

30 °F


Feels Like: 24 °F
Forecast: 31 / 47 °F
Wind: 6 mph from Southwest

Location: Greater Rochester International Airport

Current Time: Nov 25, 2015 at 1:29:32 AM

Latest Report: Nov 24, 2015 at 11:54 PM

Visibility: 9 mi

Pressure: 30.50 "Hg

Humidity: 85%

Dew point: 26 °F

Location of RochesterLocation

Historic Weather in Rochester — Graph


Rochester temperature yesterday

Maximum temperature yesterday: 42 °F (at 12:54 PM)
Minimum temperature yesterday: 30 °F (at 1:54 AM)
Average temperature yesterday: 35 °F

Past Weeks' High & Low Weather Summary

High68 °F (Nov 19, 12:54 PM)96% (Nov 10, 7:54 PM)30.50 "Hg (Nov 10, 7:54 PM)
Low24 °F (Nov 23, 3:54 AM)26% (Nov 20, 2:54 PM)29.36 "Hg (Nov 12, 1:54 PM)
Average45 °F68%30.06 "Hg
* Reported Nov 9 11:54 PM — Nov 24 11:54 PM, Rochester, Weather by CustomWeather, © 2015

Note: Actual official high and low records may vary slightly from our data, if they occured in-between our weather recording intervals... More about our weather records


Rochester weather history for previous 24 hours

Time TempWeatherWind HumidityBarometerVisibility
11:54 PM
Tue, Nov 24
30 °FClear.6 mph85%30.50 "Hg9 mi
10:54 PM31 °FClear.5 mph85%30.50 "Hg10 mi
9:54 PM31 °FPassing clouds.6 mph85%30.48 "Hg10 mi
8:54 PM33 °FPartly cloudy.5 mph82%30.47 "Hg10 mi
7:54 PM33 °FPassing clouds.5 mph78%30.45 "Hg10 mi
6:54 PM33 °FClear.3 mph78%30.43 "Hg10 mi
5:54 PM36 °FPassing clouds.5 mph70%30.42 "Hg10 mi
4:54 PM39 °FPassing clouds.5 mph65%30.39 "Hg10 mi
3:54 PM41 °FBroken clouds.7 mph60%30.37 "Hg10 mi
2:54 PM41 °FCloudy.7 mph60%30.34 "Hg10 mi
1:54 PM42 °FBroken clouds.7 mph60%30.33 "Hg10 mi
12:54 PM42 °FPartly sunny.8 mph60%30.32 "Hg10 mi
11:54 AM39 °FMore clouds than sun.9 mph67%30.32 "Hg10 mi
10:54 AM40 °FBroken clouds.9 mph70%30.31 "Hg10 mi
9:54 AM36 °FBroken clouds.8 mph75%30.30 "Hg10 mi
9:01 AM33 °FBroken clouds.7 mph78%30.25 "Hg10 mi
7:54 AM32 °FMostly cloudy.9 mph82%30.26 "Hg10 mi
6:54 AM31 °FLight snow. Ice fog.8 mph85%30.24 "Hg6 mi
5:54 AM33 °FLight snow. Overcast.10 mph61%30.22 "Hg9 mi
4:54 AM32 °FLight snow. Mostly cloudy.9 mph61%30.20 "Hg10 mi
3:54 AM32 °FOvercast.9 mph59%30.18 "Hg10 mi
2:54 AM30 °FPartly cloudy.7 mph64%30.18 "Hg10 mi
1:54 AM30 °FPassing clouds.5 mph64%30.17 "Hg10 mi
Weather by CustomWeather, © 2015

See weather overviewHow to use our weather pages